Погода в Качаре

Казахстан     53°22′09″N   62°52′08″E
темп.,
°C
ветер,
м/с
пор.,
м/с
влажн.,
%
обл.,
%
осадки,
мм/ч
давл.,
гПа
погр.,
м
25 февраля, чт
чт2500:00−22с91592100 0.3 1014710
03:00−23с71392100 0.1 1017637
06:00−24ссз71393100 0.1 1020511
09:00−27ссз5119597 0.0 1024278
12:00−25ссз699396 0.0 1027463
15:00−24сз589077 0.0 1029345
18:00−25зсз339239 0.0 103039
21:00−26з33920 0.0 103219
26 февраля, пт
пт2600:00−27зюз34900 0.0 103322
03:00−27юз34880 0.0 103228
06:00−28ююз34870 0.0 103335
09:00−29ю45910 0.0 103268
12:00−26ююз57890 0.0 1033236
15:00−24ю468830 0.0 1031254
18:00−25ю489244 0.0 1031204
21:00−27ю489383 0.0 1031126
27 февраля, сб
сб2700:00−27ю479471 0.0 1029111
03:00−26ю49989 0.0 1027137
06:00−24ююв5109846 0.0 1025204
09:00−21ююв6129798 0.1 1022296
12:00−16ююв8149399 0.2 1019501
15:00−10ююв91593100 0.4 1015750
18:00−8ю91593100 1.7 1011844
21:00−5ю91695100 2.7 1003780
28 февраля, вс
вс2800:00−2ю61297100 4.1 1001594
03:000юз51097100 0.5 999522
06:00−4юз6119199 0.6 999266
09:00−5юз5129491 0.0 1000317
12:00−2юз6119391 0.1 1000543
15:00−1юз61095100 0.4 1001671
18:00−1юз5995100 0.8 1001449
21:00−2юз4897100 0.3 1002312
1 марта, пн
пн100:00−4зюз3697100 0.6 1005165
03:00−11с5895100 0.6 1007260
06:00−16с5895100 1.1 1010260
09:00−20ссз589695 0.1 1013249
12:00−20ссз469697 0.2 1015243
15:00−18ссз459375 0.0 1018251
18:00−19ссз239547 0.0 101973
21:00−22ссз22950 0.0 102120